Location: ?????????
(41.2286°N, 23.0068°E)
Time: 01:27:52
(UTC+00:00)

USA 267 - Pass Details

Date: 08 November 2025
Orbit: 1100 x 1108 km, 123.0° (Epoch: 21 November)

Event Time Altitude Azimuth Distance (km) Brightness Sun altitude
Rises 01:26:49 0° 47° (NE) 3,921 6.8 -41.5°
Reaches altitude 10° 01:29:17 10° 47° (NE) 2,960 6.0 -41.1°
Enters shadow 01:32:58 37° 48° (NE) 1,644 4.4 -40.4°
